Retour au catalogue

OV1-2

ActifMilitaireUNKNOWN
NORAD 1613·PAYLOAD·🇺🇸 United States

Lancé Oct 5, 1965 depuis Vandenberg Space Force Base

Loading…

Prochains Passages (prochaines 24 heures)

TLE

FraisSource: Space-Track

Époque: Sep 13, 2026, 23:43 UTC

1 01613U 65078A   26256.98839224  .00006746  00000-0  64921-3 0  9991
2 01613 144.2279  49.7629 1124780 192.1330 164.9789 13.02001766726297

Suivez OV1-2 en temps réel avec AllMySat

Download on the App Store